Printer-friendly version

IAU Minor Planet Center

Minor Planet Center

MPEC 2004-E34 : 2004 EB

The following Minor Planet Electronic Circular may be linked-to from your own Web pages, but must not otherwise be redistributed electronically.


Read MPEC 2004-E33 Read MPEC 2004-E35


M.P.E.C. 2004-E34                                Issued 2004 Mar. 11, 09:38 UT

     The Minor Planet Electronic Circulars contain information on unusual
         minor planets and routine data on comets.  They are published
   on behalf of Commission 20 of the International Astronomical Union by the
          Minor Planet Center, Smithsonian Astrophysical Observatory,
                          Cambridge, MA 02138, U.S.A.

         Supported in part by the Steven and Michele Kirsch Foundation
             Prepared using the Tamkin Foundation Computer Network

                              MPC@CFA.HARVARD.EDU
          URL http://cfa-www.harvard.edu/iau/mpc.html  ISSN 1523-6714

                                    2004 EB

Observations:
     K04E00B* C2004 03 09.26090 11 24 52.91 +33 22 24.1          19.1   EE034644
     K04E00B  C2004 03 09.29703 11 24 48.92 +33 22 31.3          19.2   EE034644
     K04E00B  C2004 03 09.34385 11 24 43.71 +33 22 39.9          19.2   EE034644
     K04E00B  C2004 03 10.10952 11 23 20.23 +33 24 46.6          19.7 R EE034J95
     K04E00B  C2004 03 10.11348 11 23 19.77 +33 24 46.7          18.9 R EE034J95
     K04E00B  C2004 03 10.12063 11 23 18.88 +33 24 48.9          19.7 R EE034J95
     K04E00B  C2004 03 10.18631 11 23 12.46 +33 25 01.4          19.3 R EE034926
     K04E00B  C2004 03 10.18859 11 23 12.18 +33 25 02.0          19.3 R EE034926
     K04E00B  C2004 03 10.19082 11 23 11.90 +33 25 02.6          19.2 R EE034926
     K04E00B 5C2004 03 10.26030 11 23 04.19 +33 25 14.1          19.0 R EE034673
     K04E00B 5C2004 03 10.26251 11 23 03.95 +33 25 14.5                 EE034673
     K04E00B  C2004 03 10.26464 11 23 03.48 +33 25 13.6          19.3 R EE034649
     K04E00B 5C2004 03 10.26470 11 23 03.68 +33 25 14.8                 EE034673
     K04E00B  C2004 03 10.26627 11 23 03.49 +33 25 15.1          18.5   EE034644
     K04E00B 5C2004 03 10.26748 11 23 03.39 +33 25 15.1                 EE034673
     K04E00B  C2004 03 10.27162 11 23 02.82 +33 25 15.9          19.1   EE034704
     K04E00B  C2004 03 10.27428 11 23 02.49 +33 25 16.4          19.0 R EE034448
     K04E00B  C2004 03 10.27483 11 23 02.29 +33 25 15.8          19.5 R EE034649
     K04E00B  C2004 03 10.27824 11 23 02.06 +33 25 16.6          18.9 R EE034448
     K04E00B  C2004 03 10.28184 11 23 01.67 +33 25 17.2          18.8 R EE034448
     K04E00B  C2004 03 10.28247 11 23 01.59 +33 25 17.9          19.2   EE034704
     K04E00B  C2004 03 10.28464 11 23 01.20 +33 25 17.0          19.4 R EE034649
     K04E00B  C2004 03 10.29655 11 23 00.07 +33 25 19.9          18.8   EE034644
     K04E00B  C2004 03 10.30485 11 22 59.03 +33 25 22.4          19.2   EE034704
     K04E00B  C2004 03 10.31571 11 22 57.85 +33 25 23.1          19.2   EE034704
     K04E00B  C2004 03 10.32714 11 22 56.64 +33 25 25.0          18.9   EE034644
     K04E00B 5C2004 03 11.35313 11 21 03.25 +33 27 47.0          19.0 R EE034673
     K04E00B 5C2004 03 11.35544 11 21 02.97 +33 27 47.2                 EE034673
     K04E00B 5C2004 03 11.35741 11 21 02.73 +33 27 47.3                 EE034673

Observer details:
448 Desert Moon Observatory.  Observer B. L. Stevens.  0.3-m
    Schmidt-Cassegrain + CCD.
644 Palomar Mountain/NEAT.  Observers S. Pravdo, D. MacDonald, K. Lawrence,
    M. Hicks.  1.2-m Schmidt + CCD.
649 Powell Observatory, Louisburg.  Observers R. Fredrick, .. Trentman.
    0.75-m Newtonian + CCD.
673 Table Mountain Observatory, Wrightwood.  Observer J. Young.  0.6-m
    reflector + CCD.
704 Lincoln Laboratory ETS, New Mexico.  Observers M. Blythe, F. Shelly,
    M. Bezpalko, R. Huber, L. Manguso, D. Torres, R. Kracke, M. McCleary,
    H. Stange, A. Milner.  Measurers J. Stuart, R. Sayer, J. Evans, J. Kommers.
    1.0-m f/2.15 reflector + CCD.
926 Tenagra II Observatory.  Observers P. R. Holvorcem, M. Schwartz.  0.81-m
    f/7 Ritchey-Chretien + CCD.
J95 Great Shefford.  Observer P. Birtwhistle.  0.30-m f/6.3 Schmidt-Cassegrain
    + CCD.

Orbital elements:
2004 EB
Epoch 2004 Feb. 25.0 TT = JDT 2453060.5                 MPC
M 331.55085              (2000.0)            P               Q
n   0.18206497     Peri.  237.41554     -0.18553092     +0.97197173
a   3.0830824      Node    23.23448     -0.73332086     -0.03914359
e   0.6461940      Incl.   21.47031     -0.65407859     -0.23181617
P   5.41           H   17.0           G   0.15
From 29 observations 2004 Mar. 9-11.

Ephemeris:
2004 EB                  a,e,i = 3.08, 0.65, 21                  q = 1.0908
Date    TT    R. A. (2000) Decl.     Delta      r     Elong.  Phase     V
2004 03 06    11 30.59   +33 10.0    1.099    2.029   151.9    13.3    19.5
2004 03 16    11 12.25   +33 31.7    1.034    1.947   147.3    16.0    19.4
2004 03 26    10 52.92   +32 57.7    0.991    1.864   139.2    20.5    19.3
2004 04 05    10 35.41   +31 22.9    0.968    1.781   129.5    25.7    19.4
2004 04 15    10 21.88   +28 53.5    0.961    1.698   119.7    30.9    19.4
2004 04 25    10 13.48   +25 40.7    0.963    1.616   110.3    35.7    19.4
2004 05 05    10 10.37   +21 55.7    0.970    1.535   101.8    40.0    19.4
2004 05 15    10 12.05   +17 46.2    0.978    1.456    94.1    43.8    19.5
2004 05 25    10 17.89   +13 15.5    0.984    1.381    87.5    47.1    19.4
2004 06 04    10 27.29   +08 24.5    0.986    1.310    81.8    50.0    19.4
2004 06 14    10 39.74   +03 12.6    0.983    1.246    77.1    52.6    19.4
2004 06 24    10 55.01   -02 21.7    0.974    1.190    73.4    55.0    19.3
2004 07 04    11 13.03   -08 19.1    0.960    1.144    70.7    57.0    19.3
2004 07 14    11 34.06   -14 38.6    0.942    1.112    69.1    58.6    19.2
2004 07 24    11 58.80   -21 17.4    0.922    1.094    68.5    59.8    19.2

Kyle E. Smalley              (C) Copyright 2004 MPC           M.P.E.C. 2004-E34

Read MPEC 2004-E33 Read MPEC 2004-E35


Our Web policy. Index to the CBAT/MPC/ICQ pages.


Valid HTML 4.01!